TAP14 LPPT-GMMN

Flight info

Callsign TAP14
Flight time 1h 6m
Altitude 35000
Route DUZOP DCT AMSEL UR722 LAKAM
Aircraft A321/M-SDE3FGHIRWY/LB1

Departure

Time 2026-05-07 13:33
Airport Lisbon Humberto Delgado Airport (LPPT)

Arrival

Time 2026-05-07 14:39
Airport Mohammed V International Airport (GMMN)
Time Latitude Longitude Altitude Speed Heading
2026-05-07 12:58 38.77161 -9.13129 326 ft 0 kts 79°
2026-05-07 13:22 38.77159 -9.13135 326 ft 2 kts 79°
2026-05-07 13:22 38.77157 -9.13153 326 ft 2 kts 79°
2026-05-07 13:22 38.77154 -9.13173 326 ft 2 kts 79°
2026-05-07 13:23 38.77151 -9.13191 327 ft 1 kts 90°
2026-05-07 13:23 38.77157 -9.13209 327 ft 2 kts 137°
2026-05-07 13:23 38.77170 -9.13217 327 ft 2 kts 176°
2026-05-07 13:23 38.77184 -9.13219 327 ft 0 kts 167°
2026-05-07 13:24 38.77186 -9.13219 327 ft 0 kts 166°
2026-05-07 13:26 38.77181 -9.13218 326 ft 1 kts 166°
2026-05-07 13:26 38.77163 -9.13212 326 ft 2 kts 169°
2026-05-07 13:26 38.77154 -9.13210 327 ft 0 kts 169°
2026-05-07 13:27 38.77153 -9.13210 327 ft 0 kts 169°
2026-05-07 13:27 38.77147 -9.13208 327 ft 2 kts 169°
2026-05-07 13:27 38.77116 -9.13201 328 ft 6 kts 169°
2026-05-07 13:28 38.77055 -9.13185 330 ft 10 kts 168°
2026-05-07 13:28 38.76968 -9.13162 332 ft 13 kts 168°
2026-05-07 13:28 38.76874 -9.13137 332 ft 14 kts 168°
2026-05-07 13:28 38.76787 -9.13150 331 ft 13 kts 248°
2026-05-07 13:29 38.76767 -9.13256 334 ft 11 kts 258°
2026-05-07 13:29 38.76750 -9.13351 335 ft 10 kts 252°
2026-05-07 13:29 38.76704 -9.13423 336 ft 9 kts 214°
2026-05-07 13:29 38.76662 -9.13477 338 ft 7 kts 253°
2026-05-07 13:30 38.76646 -9.13548 338 ft 9 kts 257°
2026-05-07 13:30 38.76632 -9.13637 339 ft 11 kts 259°
2026-05-07 13:30 38.76616 -9.13736 339 ft 11 kts 258°
2026-05-07 13:30 38.76598 -9.13846 340 ft 13 kts 258°
2026-05-07 13:31 38.76577 -9.13967 339 ft 15 kts 253°
2026-05-07 13:31 38.76516 -9.14077 337 ft 16 kts 236°
2026-05-07 13:31 38.76512 -9.14222 335 ft 17 kts 292°
2026-05-07 13:31 38.76559 -9.14364 337 ft 15 kts 293°
2026-05-07 13:32 38.76637 -9.14393 339 ft 13 kts 23°
2026-05-07 13:32 38.76845 -9.14281 341 ft 65 kts 22°
2026-05-07 13:32 38.77490 -9.13936 355 ft 131 kts 22°
2026-05-07 13:32 38.78490 -9.13395 431 ft 176 kts 21°
2026-05-07 13:33 38.79548 -9.12792 1237 ft 163 kts 23°
2026-05-07 13:33 38.80551 -9.12192 1923 ft 160 kts 22°
2026-05-07 13:33 38.81609 -9.11574 2217 ft 178 kts 22°
2026-05-07 13:33 38.82787 -9.10891 2542 ft 194 kts 23°
2026-05-07 13:34 38.84026 -9.10078 2974 ft 207 kts 28°
2026-05-07 13:34 38.86742 -9.08111 3565 ft 248 kts 29°
2026-05-07 13:34 38.88038 -9.06532 3804 ft 272 kts 63°
2026-05-07 13:35 38.88436 -9.04127 4400 ft 280 kts 91°
2026-05-07 13:35 38.88007 -9.01764 5338 ft 274 kts 116°
2026-05-07 13:35 38.87067 -8.99696 6212 ft 271 kts 121°
2026-05-07 13:35 38.85900 -8.97804 6911 ft 274 kts 142°
2026-05-07 13:36 38.84212 -8.96760 7615 ft 275 kts 168°
2026-05-07 13:36 38.82312 -8.96773 8340 ft 277 kts 194°
2026-05-07 13:36 38.80527 -8.97655 9060 ft 279 kts 202°
2026-05-07 13:36 38.78757 -8.98638 9758 ft 281 kts 202°
2026-05-07 13:37 38.76939 -8.99635 10382 ft 286 kts 203°
2026-05-07 13:37 38.75062 -9.00654 10700 ft 302 kts 203°
2026-05-07 13:37 38.73075 -9.01726 10991 ft 318 kts 203°
2026-05-07 13:37 38.70988 -9.02850 11267 ft 333 kts 202°
2026-05-07 13:38 38.68805 -9.04021 11695 ft 342 kts 202°
2026-05-07 13:38 38.66626 -9.05188 12269 ft 346 kts 203°
2026-05-07 13:38 38.64405 -9.06376 12864 ft 349 kts 203°
2026-05-07 13:38 38.62146 -9.07583 13428 ft 353 kts 203°
2026-05-07 13:39 38.59869 -9.08798 13973 ft 357 kts 203°
2026-05-07 13:39 38.57580 -9.10017 14516 ft 360 kts 204°
2026-05-07 13:39 38.55269 -9.11248 15058 ft 363 kts 204°
2026-05-07 13:39 38.52916 -9.12501 15609 ft 365 kts 204°
2026-05-07 13:40 38.50580 -9.13745 16145 ft 367 kts 204°
2026-05-07 13:40 38.48223 -9.14998 16697 ft 370 kts 205°
2026-05-07 13:40 38.45838 -9.16262 17244 ft 373 kts 204°
2026-05-07 13:40 38.43299 -9.17074 17677 ft 382 kts 186°
2026-05-07 13:41 38.40670 -9.16656 18104 ft 390 kts 165°
2026-05-07 13:41 38.38242 -9.15071 18596 ft 398 kts 148°
2026-05-07 13:41 38.35964 -9.13042 19035 ft 401 kts 147°
2026-05-07 13:41 38.33677 -9.10994 19457 ft 405 kts 147°
2026-05-07 13:42 38.31355 -9.08931 19914 ft 407 kts 148°
2026-05-07 13:42 38.29029 -9.06874 20348 ft 410 kts 148°
2026-05-07 13:42 38.26670 -9.04801 20757 ft 413 kts 148°
2026-05-07 13:42 38.24299 -9.02726 21161 ft 416 kts 148°
2026-05-07 13:43 38.21903 -9.00631 21561 ft 419 kts 148°
2026-05-07 13:43 38.19510 -8.98541 21948 ft 422 kts 148°
2026-05-07 13:43 38.17063 -8.96407 22329 ft 425 kts 148°
2026-05-07 13:43 38.14656 -8.94309 22706 ft 428 kts 148°
2026-05-07 13:44 38.12183 -8.92156 23086 ft 430 kts 149°
2026-05-07 13:44 38.09707 -8.90030 23466 ft 432 kts 150°
2026-05-07 13:44 38.07119 -8.88050 23843 ft 433 kts 154°
2026-05-07 13:44 38.04440 -8.86290 24200 ft 434 kts 158°
2026-05-07 13:45 38.01707 -8.84718 24531 ft 436 kts 160°
2026-05-07 13:45 37.98925 -8.83150 24884 ft 439 kts 160°
2026-05-07 13:45 37.96122 -8.81574 25219 ft 442 kts 160°
2026-05-07 13:45 37.93316 -8.79995 25518 ft 445 kts 160°
2026-05-07 13:46 37.90495 -8.78405 25857 ft 448 kts 160°
2026-05-07 13:46 37.87627 -8.76789 26201 ft 450 kts 160°
2026-05-07 13:46 37.84782 -8.75184 26518 ft 452 kts 160°
2026-05-07 13:46 37.81884 -8.73552 26835 ft 454 kts 160°
2026-05-07 13:47 37.79018 -8.71936 27142 ft 457 kts 160°
2026-05-07 13:47 37.76086 -8.70284 27435 ft 459 kts 160°
2026-05-07 13:47 37.73183 -8.68654 27706 ft 462 kts 160°
2026-05-07 13:47 37.70245 -8.67002 27974 ft 464 kts 160°
2026-05-07 13:48 37.67255 -8.65355 28280 ft 465 kts 162°
2026-05-07 13:48 37.64243 -8.63898 28561 ft 465 kts 165°
2026-05-07 13:48 37.61192 -8.62489 28854 ft 467 kts 165°
2026-05-07 13:48 37.58175 -8.61100 29229 ft 466 kts 165°
2026-05-07 13:49 37.55153 -8.59711 29624 ft 465 kts 165°
2026-05-07 13:49 37.52096 -8.58304 29986 ft 464 kts 165°
2026-05-07 13:49 37.49065 -8.56911 30365 ft 463 kts 165°
2026-05-07 13:49 37.46061 -8.55530 30734 ft 462 kts 166°
2026-05-07 13:50 37.43039 -8.54144 31092 ft 462 kts 166°
2026-05-07 13:50 37.39999 -8.52748 31442 ft 461 kts 166°
2026-05-07 13:50 37.37010 -8.51379 31808 ft 460 kts 166°
2026-05-07 13:50 37.33992 -8.49998 32139 ft 460 kts 166°
2026-05-07 13:51 37.30981 -8.48621 32457 ft 460 kts 166°
2026-05-07 13:51 37.27996 -8.47258 32778 ft 459 kts 167°
2026-05-07 13:51 37.24995 -8.45886 33117 ft 458 kts 167°
2026-05-07 13:51 37.22000 -8.44519 33417 ft 458 kts 167°
2026-05-07 13:52 37.19005 -8.43156 33690 ft 458 kts 167°
2026-05-07 13:52 37.16024 -8.41798 33940 ft 459 kts 167°
2026-05-07 13:52 37.13020 -8.40433 34159 ft 460 kts 167°
2026-05-07 13:52 37.09987 -8.39057 34336 ft 462 kts 167°
2026-05-07 13:53 37.06984 -8.37694 34536 ft 462 kts 167°
2026-05-07 13:53 37.03970 -8.36326 34724 ft 463 kts 167°
2026-05-07 13:53 37.00941 -8.34953 34907 ft 464 kts 168°
2026-05-07 13:54 36.94868 -8.32200 34911 ft 464 kts 168°
2026-05-07 13:54 36.88811 -8.29461 34916 ft 464 kts 168°
2026-05-07 13:55 36.82727 -8.26715 34903 ft 464 kts 168°
2026-05-07 13:55 36.76664 -8.23982 34902 ft 465 kts 168°
2026-05-07 13:56 36.70594 -8.21250 34914 ft 465 kts 168°
2026-05-07 13:56 36.64527 -8.18525 34920 ft 464 kts 168°
2026-05-07 13:57 36.58433 -8.15792 34923 ft 465 kts 168°
2026-05-07 13:57 36.52371 -8.13078 34920 ft 466 kts 168°
2026-05-07 13:58 36.46280 -8.10356 34920 ft 466 kts 168°
2026-05-07 13:58 36.40204 -8.07645 34924 ft 465 kts 168°
2026-05-07 13:59 36.34095 -8.04922 34923 ft 465 kts 168°
2026-05-07 13:59 36.28006 -8.02213 34923 ft 464 kts 168°
2026-05-07 14:00 36.21940 -7.99521 34929 ft 464 kts 168°
2026-05-07 14:00 36.15839 -7.96818 34930 ft 466 kts 167°
2026-05-07 14:01 36.09763 -7.94126 34930 ft 466 kts 167°
2026-05-07 14:01 36.03654 -7.91427 34934 ft 465 kts 168°
2026-05-07 14:02 35.97510 -7.89195 34926 ft 458 kts 174°
2026-05-07 14:02 35.91286 -7.87876 34922 ft 451 kts 181°
2026-05-07 14:03 35.85084 -7.87272 34916 ft 448 kts 184°
2026-05-07 14:03 35.78830 -7.86716 34922 ft 448 kts 183°
2026-05-07 14:04 35.72626 -7.86157 34922 ft 448 kts 183°
2026-05-07 14:04 35.66415 -7.85596 34923 ft 448 kts 183°
2026-05-07 14:05 35.60193 -7.85034 34927 ft 448 kts 183°
2026-05-07 14:05 35.53961 -7.84471 34935 ft 448 kts 183°
2026-05-07 14:06 35.47740 -7.83909 34939 ft 448 kts 183°
2026-05-07 14:06 35.41531 -7.83350 34941 ft 448 kts 183°
2026-05-07 14:07 35.35317 -7.82818 34939 ft 448 kts 184°
2026-05-07 14:07 35.29129 -7.82298 34942 ft 447 kts 184°
2026-05-07 14:08 35.22923 -7.81777 34945 ft 447 kts 184°
2026-05-07 14:08 35.16730 -7.81257 34944 ft 447 kts 184°
2026-05-07 14:09 35.10490 -7.80732 34818 ft 449 kts 184°
2026-05-07 14:09 35.07379 -7.80470 34575 ft 446 kts 184°
2026-05-07 14:09 35.04294 -7.80210 34335 ft 443 kts 184°
2026-05-07 14:09 35.01239 -7.79952 34091 ft 440 kts 184°
2026-05-07 14:10 34.98205 -7.79697 33819 ft 437 kts 184°
2026-05-07 14:10 34.95145 -7.79442 33543 ft 437 kts 184°
2026-05-07 14:10 34.92157 -7.79196 33272 ft 437 kts 183°
2026-05-07 14:10 34.89085 -7.78941 32991 ft 437 kts 183°
2026-05-07 14:11 34.86073 -7.78690 32722 ft 438 kts 183°
2026-05-07 14:11 34.83016 -7.78435 32453 ft 439 kts 183°
2026-05-07 14:11 34.79970 -7.78179 32184 ft 439 kts 183°
2026-05-07 14:11 34.76940 -7.77926 31915 ft 439 kts 183°
2026-05-07 14:12 34.73882 -7.77673 31648 ft 440 kts 183°
2026-05-07 14:12 34.70818 -7.77447 31367 ft 441 kts 183°
2026-05-07 14:12 34.67739 -7.77234 30937 ft 442 kts 183°
2026-05-07 14:12 34.64700 -7.77027 30351 ft 444 kts 183°
2026-05-07 14:13 34.61603 -7.76815 29657 ft 444 kts 183°
2026-05-07 14:13 34.58537 -7.76604 28933 ft 444 kts 182°
2026-05-07 14:13 34.55423 -7.76389 28193 ft 444 kts 182°
2026-05-07 14:13 34.52403 -7.76176 27711 ft 437 kts 182°
2026-05-07 14:14 34.49374 -7.75962 27224 ft 431 kts 182°
2026-05-07 14:14 34.46382 -7.75751 26727 ft 426 kts 182°
2026-05-07 14:14 34.43469 -7.75548 26231 ft 421 kts 182°
2026-05-07 14:14 34.40548 -7.75343 25733 ft 416 kts 182°
2026-05-07 14:15 34.37696 -7.75145 25244 ft 411 kts 182°
2026-05-07 14:15 34.34845 -7.74948 24753 ft 407 kts 182°
2026-05-07 14:15 34.32039 -7.74753 24270 ft 403 kts 182°
2026-05-07 14:15 34.29268 -7.74564 23791 ft 399 kts 182°
2026-05-07 14:16 34.26488 -7.74371 23310 ft 395 kts 182°
2026-05-07 14:16 34.23765 -7.74182 22837 ft 392 kts 182°
2026-05-07 14:16 34.21081 -7.73996 22371 ft 388 kts 182°
2026-05-07 14:16 34.18395 -7.73810 21901 ft 385 kts 181°
2026-05-07 14:17 34.15733 -7.73578 21442 ft 382 kts 180°
2026-05-07 14:17 34.13071 -7.73324 20983 ft 379 kts 180°
2026-05-07 14:17 34.10464 -7.73076 20513 ft 376 kts 181°
2026-05-07 14:17 34.07854 -7.72831 20032 ft 374 kts 180°
2026-05-07 14:18 34.05283 -7.72593 19589 ft 371 kts 180°
2026-05-07 14:18 34.02705 -7.72354 19118 ft 369 kts 180°
2026-05-07 14:18 34.00179 -7.72119 18658 ft 367 kts 180°
2026-05-07 14:18 33.97639 -7.71885 18201 ft 365 kts 180°
2026-05-07 14:19 33.95121 -7.71652 17730 ft 363 kts 180°
2026-05-07 14:19 33.92580 -7.71420 17217 ft 363 kts 180°
2026-05-07 14:19 33.90063 -7.71190 16732 ft 362 kts 180°
2026-05-07 14:19 33.87573 -7.70962 16225 ft 360 kts 180°
2026-05-07 14:20 33.85061 -7.70733 15746 ft 359 kts 179°
2026-05-07 14:20 33.82579 -7.70505 15256 ft 359 kts 179°
2026-05-07 14:20 33.80089 -7.70276 14781 ft 358 kts 179°
2026-05-07 14:20 33.77607 -7.70049 14295 ft 357 kts 178°
2026-05-07 14:21 33.75147 -7.69822 13843 ft 355 kts 178°
2026-05-07 14:21 33.72680 -7.69595 13378 ft 354 kts 178°
2026-05-07 14:21 33.70226 -7.69370 12866 ft 352 kts 178°
2026-05-07 14:21 33.67808 -7.69146 12410 ft 350 kts 178°
2026-05-07 14:22 33.65380 -7.68924 11954 ft 348 kts 178°
2026-05-07 14:22 33.62973 -7.68705 11491 ft 345 kts 177°
2026-05-07 14:22 33.60597 -7.68489 11012 ft 343 kts 177°
2026-05-07 14:22 33.58226 -7.68271 10609 ft 336 kts 177°
2026-05-07 14:23 33.55949 -7.68060 10447 ft 323 kts 177°
2026-05-07 14:23 33.53744 -7.67861 10299 ft 310 kts 178°
2026-05-07 14:23 33.51627 -7.67815 10137 ft 297 kts 183°
2026-05-07 14:23 33.49619 -7.67962 9974 ft 285 kts 186°
2026-05-07 14:24 33.47655 -7.68165 9726 ft 279 kts 186°
2026-05-07 14:24 33.45723 -7.68370 9343 ft 278 kts 186°
2026-05-07 14:24 33.43820 -7.68571 8984 ft 275 kts 186°
2026-05-07 14:24 33.41909 -7.68773 8630 ft 274 kts 186°
2026-05-07 14:25 33.40031 -7.68971 8284 ft 272 kts 186°
2026-05-07 14:25 33.38141 -7.69170 7930 ft 270 kts 185°
2026-05-07 14:25 33.36259 -7.69367 7581 ft 269 kts 185°
2026-05-07 14:25 33.34400 -7.69559 7303 ft 272 kts 185°
2026-05-07 14:26 33.32500 -7.69756 7058 ft 272 kts 185°
2026-05-07 14:26 33.30618 -7.69949 6819 ft 272 kts 185°
2026-05-07 14:26 33.28737 -7.70146 6584 ft 271 kts 185°
2026-05-07 14:26 33.26849 -7.70346 6336 ft 270 kts 184°
2026-05-07 14:27 33.24988 -7.70539 6094 ft 270 kts 184°
2026-05-07 14:27 33.23115 -7.70759 5849 ft 270 kts 189°
2026-05-07 14:27 33.21318 -7.71426 5605 ft 269 kts 203°
2026-05-07 14:27 33.19617 -7.72349 5385 ft 268 kts 203°
2026-05-07 14:28 33.17920 -7.73160 5253 ft 258 kts 199°
2026-05-07 14:28 33.16240 -7.73774 5129 ft 247 kts 194°
2026-05-07 14:28 33.14578 -7.74190 5000 ft 237 kts 188°
2026-05-07 14:28 33.12974 -7.74420 4870 ft 230 kts 184°
2026-05-07 14:29 33.11371 -7.74488 4753 ft 230 kts 179°
2026-05-07 14:29 33.09782 -7.74400 4628 ft 229 kts 174°
2026-05-07 14:29 33.08233 -7.74000 4502 ft 228 kts 155°
2026-05-07 14:29 33.06915 -7.72955 4377 ft 227 kts 132°
2026-05-07 14:30 33.06035 -7.71397 4329 ft 225 kts 111°
2026-05-07 14:30 33.05709 -7.69611 4266 ft 223 kts 91°
2026-05-07 14:30 33.05936 -7.67837 4125 ft 212 kts 71°
2026-05-07 14:30 33.06449 -7.66206 4012 ft 211 kts 66°
2026-05-07 14:31 33.07003 -7.64574 3892 ft 211 kts 66°
2026-05-07 14:31 33.07550 -7.62961 3767 ft 211 kts 66°
2026-05-07 14:31 33.08092 -7.61333 3645 ft 211 kts 66°
2026-05-07 14:31 33.08628 -7.59698 3575 ft 211 kts 67°
2026-05-07 14:32 33.09153 -7.58083 3569 ft 211 kts 67°
2026-05-07 14:32 33.09689 -7.56432 3569 ft 211 kts 67°
2026-05-07 14:32 33.10219 -7.54795 3566 ft 211 kts 67°
2026-05-07 14:32 33.10774 -7.53192 3564 ft 210 kts 60°
2026-05-07 14:33 33.11736 -7.51927 3556 ft 207 kts 34°
2026-05-07 14:33 33.13047 -7.51260 3566 ft 206 kts 11°
2026-05-07 14:33 33.14478 -7.51251 3564 ft 199 kts 351°
2026-05-07 14:33 33.15770 -7.51594 3542 ft 185 kts 344°
2026-05-07 14:34 33.17001 -7.52012 3551 ft 185 kts 343°
2026-05-07 14:34 33.18233 -7.52446 3555 ft 185 kts 342°
2026-05-07 14:34 33.19475 -7.52881 3564 ft 185 kts 343°
2026-05-07 14:34 33.20726 -7.53315 3489 ft 182 kts 343°
2026-05-07 14:35 33.21905 -7.53723 3319 ft 176 kts 342°
2026-05-07 14:35 33.23085 -7.54152 3117 ft 176 kts 342°
2026-05-07 14:35 33.24274 -7.54579 2880 ft 176 kts 344°
2026-05-07 14:35 33.25444 -7.54935 2690 ft 174 kts 345°
2026-05-07 14:36 33.26569 -7.55313 2546 ft 157 kts 343°
2026-05-07 14:36 33.27581 -7.55656 2334 ft 148 kts 343°
2026-05-07 14:36 33.28561 -7.55993 2070 ft 146 kts 344°
2026-05-07 14:36 33.29532 -7.56313 1828 ft 144 kts 343°
2026-05-07 14:37 33.30486 -7.56645 1588 ft 142 kts 344°
2026-05-07 14:37 33.32424 -7.57321 1237 ft 147 kts 343°
2026-05-07 14:37 33.33406 -7.57636 1055 ft 147 kts 343°
2026-05-07 14:38 33.34390 -7.57976 854 ft 145 kts 343°
2026-05-07 14:38 33.35336 -7.58309 684 ft 137 kts 344°
2026-05-07 14:38 33.36165 -7.58587 650 ft 102 kts 345°
2026-05-07 14:38 33.36688 -7.58766 647 ft 53 kts 345°
2026-05-07 14:39 33.37028 -7.58880 647 ft 48 kts 343°
2026-05-07 14:39 33.37341 -7.58966 647 ft 43 kts 360°
2026-05-07 14:39 33.37595 -7.58915 643 ft 31 kts 14°
2026-05-07 14:39 33.37755 -7.58869 643 ft 15 kts 13°
2026-05-07 14:40 33.37783 -7.58787 643 ft 13 kts 147°
2026-05-07 14:40 33.37690 -7.58752 643 ft 14 kts 164°
2026-05-07 14:40 33.37592 -7.58718 643 ft 14 kts 163°
2026-05-07 14:40 33.37492 -7.58683 643 ft 15 kts 164°
2026-05-07 14:41 33.37395 -7.58650 645 ft 14 kts 164°
2026-05-07 14:41 33.37302 -7.58619 646 ft 14 kts 164°
2026-05-07 14:41 33.37200 -7.58584 644 ft 16 kts 163°
2026-05-07 14:41 33.37090 -7.58545 643 ft 16 kts 163°
2026-05-07 14:42 33.36977 -7.58507 643 ft 16 kts 164°
2026-05-07 14:42 33.36901 -7.58442 643 ft 13 kts 88°
2026-05-07 14:42 33.36924 -7.58331 643 ft 14 kts 73°
2026-05-07 14:42 33.36956 -7.58238 644 ft 9 kts 31°
2026-05-07 14:43 33.37018 -7.58240 646 ft 6 kts 355°
2026-05-07 14:43 33.37039 -7.58212 647 ft 4 kts 73°
2026-05-07 14:43 33.37047 -7.58178 647 ft 2 kts 74°
2026-05-07 14:43 33.37049 -7.58172 647 ft 0 kts 74°